Data supplied by UK-AIR on 22/3/2016
All Data GMT hour ending 
Status: R =Ratified P=Provisional,P*=As supplied
,,Liverpool Queen's Drive Roadside,,,,,,,,,,,,,,,,,,,,,,,
Date,time,"Nitric oxide",status,unit,"Nitrogen dioxide",status,unit,"Nitrogen oxides as nitrogen dioxide",status,unit
 
01-01-2015,01:00,2.31249,R,ugm-3,12.45930,R,ugm-3,16.00508,R,ugm-3
01-01-2015,02:00,2.47007,R,ugm-3,15.85526,R,ugm-3,19.64265,R,ugm-3
01-01-2015,03:00,3.31096,R,ugm-3,15.35403,R,ugm-3,20.43076,R,ugm-3
01-01-2015,04:00,3.27167,R,ugm-3,18.80992,R,ugm-3,23.82640,R,ugm-3
01-01-2015,05:00,4.05965,R,ugm-3,20.26868,R,ugm-3,26.49338,R,ugm-3
01-01-2015,06:00,4.17752,R,ugm-3,23.78672,R,ugm-3,30.19216,R,ugm-3
01-01-2015,07:00,2.64053,R,ugm-3,18.98921,R,ugm-3,23.03798,R,ugm-3
01-01-2015,08:00,1.26133,R,ugm-3,14.07122,R,ugm-3,16.00523,R,ugm-3
01-01-2015,09:00,1.97042,R,ugm-3,10.07409,R,ugm-3,13.09537,R,ugm-3
01-01-2015,10:00,1.49770,R,ugm-3,8.85870,R,ugm-3,11.15513,R,ugm-3
01-01-2015,11:00,2.99539,R,ugm-3,14.38296,R,ugm-3,18.97583,R,ugm-3
01-01-2015,12:00,3.90218,R,ugm-3,17.78243,R,ugm-3,23.76568,R,ugm-3
01-01-2015,13:00,3.19278,R,ugm-3,16.62680,R,ugm-3,21.52232,R,ugm-3
01-01-2015,14:00,2.79832,R,ugm-3,15.41332,R,ugm-3,19.70401,R,ugm-3
01-01-2015,15:00,4.80897,R,ugm-3,24.63683,R,ugm-3,32.01047,R,ugm-3
01-01-2015,16:00,4.61158,R,ugm-3,22.87876,R,ugm-3,29.94975,R,ugm-3
01-01-2015,17:00,4.21743,R,ugm-3,15.41953,R,ugm-3,21.88617,R,ugm-3
01-01-2015,18:00,3.74471,R,ugm-3,20.99447,R,ugm-3,26.73627,R,ugm-3
01-01-2015,19:00,3.46812,R,ugm-3,14.02197,R,ugm-3,19.33968,R,ugm-3
01-01-2015,20:00,2.04931,R,ugm-3,7.28567,R,ugm-3,10.42791,R,ugm-3
01-01-2015,21:00,1.53730,R,ugm-3,7.64618,R,ugm-3,10.00333,R,ugm-3
01-01-2015,22:00,1.45809,R,ugm-3,8.67701,R,ugm-3,10.91273,R,ugm-3
01-01-2015,23:00,1.22173,R,ugm-3,7.88763,R,ugm-3,9.76092,R,ugm-3
01-01-2015,24:00,1.73437,R,ugm-3,6.55557,R,ugm-3,9.21490,R,ugm-3
02-01-2015,01:00,1.78780,R,ugm-3,7.12088,R,ugm-3,9.86213,R,ugm-3
02-01-2015,02:00,1.26185,R,ugm-3,4.93680,R,ugm-3,6.87161,R,ugm-3
02-01-2015,03:00,0.98599,R,ugm-3,4.97489,R,ugm-3,6.48672,R,ugm-3
02-01-2015,04:00,1.30156,R,ugm-3,6.00716,R,ugm-3,8.00286,R,ugm-3
02-01-2015,05:00,0.98599,R,ugm-3,5.15658,R,ugm-3,6.66841,R,ugm-3
02-01-2015,06:00,2.32715,R,ugm-3,5.64713,R,ugm-3,9.21538,R,ugm-3
02-01-2015,07:00,5.68020,R,ugm-3,10.93328,R,ugm-3,19.64281,R,ugm-3
02-01-2015,08:00,10.33513,R,ugm-3,17.73987,R,ugm-3,33.58685,R,ugm-3
02-01-2015,09:00,13.37199,R,ugm-3,22.35952,R,ugm-3,42.86295,R,ugm-3
02-01-2015,10:00,11.75456,R,ugm-3,20.29210,R,ugm-3,38.31550,R,ugm-3
02-01-2015,11:00,15.06801,R,ugm-3,21.94163,R,ugm-3,45.04559,R,ugm-3
02-01-2015,12:00,14.79267,R,ugm-3,24.42454,R,ugm-3,47.10631,R,ugm-3
02-01-2015,13:00,15.06832,R,ugm-3,24.97199,R,ugm-3,48.07643,R,ugm-3
02-01-2015,14:00,22.01110,R,ugm-3,33.66622,R,ugm-3,67.41610,R,ugm-3
02-01-2015,15:00,19.44634,R,ugm-3,34.50724,R,ugm-3,64.32455,R,ugm-3
02-01-2015,16:00,20.59105,R,ugm-3,36.93516,R,ugm-3,68.50766,R,ugm-3
02-01-2015,17:00,15.30500,R,ugm-3,30.30834,R,ugm-3,53.77568,R,ugm-3
02-01-2015,18:00,15.14690,R,ugm-3,36.18928,R,ugm-3,59.41420,R,ugm-3
02-01-2015,19:00,14.83164,R,ugm-3,32.97389,R,ugm-3,55.71543,R,ugm-3
02-01-2015,20:00,13.53009,R,ugm-3,34.36380,R,ugm-3,55.10964,R,ugm-3
02-01-2015,21:00,8.28332,R,ugm-3,31.49553,R,ugm-3,44.19644,R,ugm-3
02-01-2015,22:00,9.11153,R,ugm-3,24.46661,R,ugm-3,38.43743,R,ugm-3
02-01-2015,23:00,4.73350,R,ugm-3,25.29855,R,ugm-3,32.55649,R,ugm-3
02-01-2015,24:00,4.02348,R,ugm-3,12.74586,R,ugm-3,18.91510,R,ugm-3
03-01-2015,01:00,1.94620,R,ugm-3,10.03999,R,ugm-3,13.02413,R,ugm-3
03-01-2015,02:00,1.47265,R,ugm-3,9.22973,R,ugm-3,11.48775,R,ugm-3
03-01-2015,03:00,2.05119,R,ugm-3,10.80993,R,ugm-3,13.95503,R,ugm-3
03-01-2015,04:00,1.45934,R,ugm-3,12.93089,R,ugm-3,15.16852,R,ugm-3
03-01-2015,05:00,1.61775,R,ugm-3,7.71263,R,ugm-3,10.19315,R,ugm-3
03-01-2015,06:00,3.07709,R,ugm-3,16.63923,R,ugm-3,21.35737,R,ugm-3
03-01-2015,07:00,4.37896,R,ugm-3,17.73748,R,ugm-3,24.45179,R,ugm-3
03-01-2015,08:00,7.65250,R,ugm-3,30.85962,R,ugm-3,42.59329,R,ugm-3
03-01-2015,09:00,5.99577,R,ugm-3,36.85866,R,ugm-3,46.05204,R,ugm-3
03-01-2015,10:00,4.73350,R,ugm-3,35.45632,R,ugm-3,42.71425,R,ugm-3
03-01-2015,11:00,17.98731,R,ugm-3,49.11157,R,ugm-3,76.69173,R,ugm-3
03-01-2015,12:00,8.00735,R,ugm-3,34.80511,R,ugm-3,47.08288,R,ugm-3
03-01-2015,13:00,8.12554,R,ugm-3,32.62199,R,ugm-3,45.08097,R,ugm-3
03-01-2015,14:00,37.19729,R,ugm-3,58.36711,R,ugm-3,115.40216,R,ugm-3
03-01-2015,15:00,80.54845,R,ugm-3,86.24419,R,ugm-3,209.75009,R,ugm-3
03-01-2015,16:00,51.75297,R,ugm-3,74.27289,R,ugm-3,153.62634,R,ugm-3
03-01-2015,17:00,52.26561,R,ugm-3,75.30756,R,ugm-3,155.44704,R,ugm-3
03-01-2015,18:00,59.56325,R,ugm-3,82.98768,R,ugm-3,174.31673,R,ugm-3
03-01-2015,19:00,25.79728,R,ugm-3,53.21579,R,ugm-3,92.77107,R,ugm-3
03-01-2015,20:00,22.60264,R,ugm-3,50.83282,R,ugm-3,85.48971,R,ugm-3
03-01-2015,21:00,25.04828,R,ugm-3,55.03171,R,ugm-3,93.43853,R,ugm-3
03-01-2015,22:00,40.27469,R,ugm-3,71.91096,R,ugm-3,133.66463,R,ugm-3
03-01-2015,23:00,57.98511,R,ugm-3,79.03645,R,ugm-3,167.94571,R,ugm-3
03-01-2015,24:00,62.16637,R,ugm-3,85.97309,R,ugm-3,181.29353,R,ugm-3
04-01-2015,01:00,69.00604,R,ugm-3,92.14553,R,ugm-3,197.95331,R,ugm-3
04-01-2015,02:00,47.37287,R,ugm-3,81.51521,R,ugm-3,154.15260,R,ugm-3
04-01-2015,03:00,96.36328,R,ugm-3,81.22722,R,ugm-3,228.98219,R,ugm-3
04-01-2015,04:00,35.05568,R,ugm-3,69.75700,R,ugm-3,123.50829,R,ugm-3
04-01-2015,05:00,65.76888,R,ugm-3,61.52608,R,ugm-3,162.37029,R,ugm-3
04-01-2015,06:00,27.08107,R,ugm-3,51.80580,R,ugm-3,93.32952,R,ugm-3
04-01-2015,07:00,27.59433,R,ugm-3,50.77592,R,ugm-3,93.08663,R,ugm-3
04-01-2015,08:00,46.93808,R,ugm-3,52.56984,R,ugm-3,124.54057,R,ugm-3
04-01-2015,09:00,33.12143,R,ugm-3,50.07355,R,ugm-3,100.85903,R,ugm-3
04-01-2015,10:00,39.47673,R,ugm-3,51.80532,R,ugm-3,112.33547,R,ugm-3
04-01-2015,11:00,54.20205,R,ugm-3,55.21579,R,ugm-3,138.32443,R,ugm-3
04-01-2015,12:00,39.75332,R,ugm-3,48.83091,R,ugm-3,109.78515,R,ugm-3
04-01-2015,13:00,44.37239,R,ugm-3,52.73910,R,ugm-3,120.77581,R,ugm-3
04-01-2015,14:00,50.68871,R,ugm-3,60.60282,R,ugm-3,138.32443,R,ugm-3
04-01-2015,15:00,31.06837,R,ugm-3,57.41134,R,ugm-3,105.04884,R,ugm-3
04-01-2015,16:00,21.63348,R,ugm-3,45.28178,R,ugm-3,78.45266,R,ugm-3
04-01-2015,17:00,20.76505,R,ugm-3,44.48810,R,ugm-3,76.32740,R,ugm-3
04-01-2015,18:00,29.25262,R,ugm-3,50.29779,R,ugm-3,95.15118,R,ugm-3
04-01-2015,19:00,30.19994,R,ugm-3,53.58156,R,ugm-3,99.88748,R,ugm-3
04-01-2015,20:00,23.76512,R,ugm-3,53.00398,R,ugm-3,89.44332,R,ugm-3
04-01-2015,21:00,15.08017,R,ugm-3,42.82135,R,ugm-3,65.94396,R,ugm-3
04-01-2015,22:00,13.18521,R,ugm-3,42.14433,R,ugm-3,62.36137,R,ugm-3
04-01-2015,23:00,12.04050,R,ugm-3,44.50674,R,ugm-3,62.96858,R,ugm-3
04-01-2015,24:00,8.76415,R,ugm-3,30.82807,R,ugm-3,44.26625,R,ugm-3
05-01-2015,01:00,6.32132,R,ugm-3,24.63555,R,ugm-3,34.32810,R,ugm-3
05-01-2015,02:00,3.00267,R,ugm-3,17.41778,R,ugm-3,22.02180,R,ugm-3
05-01-2015,03:00,3.35836,R,ugm-3,16.89263,R,ugm-3,22.04204,R,ugm-3
05-01-2015,04:00,3.59565,R,ugm-3,18.89693,R,ugm-3,24.41019,R,ugm-3
05-01-2015,05:00,6.99299,R,ugm-3,22.55316,R,ugm-3,33.27559,R,ugm-3
05-01-2015,06:00,13.70939,R,ugm-3,28.64973,R,ugm-3,49.67049,R,ugm-3
05-01-2015,07:00,57.24733,R,ugm-3,51.03219,R,ugm-3,138.81021,R,ugm-3
05-01-2015,08:00,85.49587,R,ugm-3,61.21434,R,ugm-3,192.30618,R,ugm-3
05-01-2015,09:00,137.96292,R,ugm-3,81.07853,R,ugm-3,292.61872,R,ugm-3
05-01-2015,10:00,174.54747,R,ugm-3,86.55497,R,ugm-3,354.19070,R,ugm-3
05-01-2015,11:00,188.88862,R,ugm-3,93.40841,R,ugm-3,383.03359,R,ugm-3
05-01-2015,12:00,134.01178,R,ugm-3,80.51816,R,ugm-3,286.00003,R,ugm-3
05-01-2015,13:00,115.71951,R,ugm-3,82.15192,R,ugm-3,259.58602,R,ugm-3
05-01-2015,14:00,,,,,,,,,
05-01-2015,15:00,76.72485,R,ugm-3,75.63459,R,ugm-3,193.27773,R,ugm-3
05-01-2015,16:00,75.65810,R,ugm-3,82.79595,R,ugm-3,198.80342,R,ugm-3
05-01-2015,17:00,94.38537,R,ugm-3,91.72876,R,ugm-3,236.45098,R,ugm-3
05-01-2015,18:00,107.46238,R,ugm-3,90.68358,R,ugm-3,255.45693,R,ugm-3
05-01-2015,19:00,15.60591,R,ugm-3,44.44411,R,ugm-3,68.37283,R,ugm-3
05-01-2015,20:00,37.88830,R,ugm-3,67.05321,R,ugm-3,125.14778,R,ugm-3
05-01-2015,21:00,16.59314,R,ugm-3,45.54141,R,ugm-3,70.98387,R,ugm-3
05-01-2015,22:00,10.58833,R,ugm-3,37.68581,R,ugm-3,53.92103,R,ugm-3
05-01-2015,23:00,9.20539,R,ugm-3,35.25216,R,ugm-3,49.36688,R,ugm-3
05-01-2015,24:00,6.71640,R,ugm-3,24.49530,R,ugm-3,34.79363,R,ugm-3
06-01-2015,01:00,4.38260,R,ugm-3,20.93168,R,ugm-3,27.65156,R,ugm-3
06-01-2015,02:00,2.64012,R,ugm-3,14.27873,R,ugm-3,18.32685,R,ugm-3
06-01-2015,03:00,1.74248,R,ugm-3,13.38368,R,ugm-3,16.05544,R,ugm-3
06-01-2015,04:00,2.45531,R,ugm-3,10.77120,R,ugm-3,14.53596,R,ugm-3
06-01-2015,05:00,2.57412,R,ugm-3,18.19027,R,ugm-3,22.13719,R,ugm-3
06-01-2015,06:00,7.28673,R,ugm-3,22.88498,R,ugm-3,34.05780,R,ugm-3
06-01-2015,07:00,17.18717,R,ugm-3,32.63968,R,ugm-3,58.99298,R,ugm-3
06-01-2015,08:00,35.80001,R,ugm-3,43.44913,R,ugm-3,98.34171,R,ugm-3
06-01-2015,09:00,25.14713,R,ugm-3,41.29470,R,ugm-3,79.85309,R,ugm-3
06-01-2015,10:00,31.12700,R,ugm-3,49.09435,R,ugm-3,96.82175,R,ugm-3
06-01-2015,11:00,30.09735,R,ugm-3,47.32816,R,ugm-3,93.47678,R,ugm-3
06-01-2015,12:00,31.20620,R,ugm-3,44.10751,R,ugm-3,91.95635,R,ugm-3
06-01-2015,13:00,33.18629,R,ugm-3,47.82206,R,ugm-3,98.70699,R,ugm-3
06-01-2015,14:00,41.70067,R,ugm-3,54.22798,R,ugm-3,118.16812,R,ugm-3
06-01-2015,15:00,41.46306,R,ugm-3,57.51174,R,ugm-3,121.08755,R,ugm-3
06-01-2015,16:00,53.18518,R,ugm-3,67.63556,R,ugm-3,149.18504,R,ugm-3
06-01-2015,17:00,44.67080,R,ugm-3,62.87153,R,ugm-3,131.36580,R,ugm-3
06-01-2015,18:00,77.46107,R,ugm-3,112.45643,R,ugm-3,231.22842,R,ugm-3
06-01-2015,19:00,52.55156,R,ugm-3,82.65634,R,ugm-3,163.23427,R,ugm-3
06-01-2015,20:00,28.83009,R,ugm-3,64.35371,R,ugm-3,108.55924,R,ugm-3
06-01-2015,21:00,14.73186,R,ugm-3,52.33843,R,ugm-3,74.92697,R,ugm-3
06-01-2015,22:00,14.17744,R,ugm-3,51.79002,R,ugm-3,73.52845,R,ugm-3
06-01-2015,23:00,34.57235,R,ugm-3,63.21195,R,ugm-3,116.22215,R,ugm-3
06-01-2015,24:00,31.28540,R,ugm-3,62.41348,R,ugm-3,110.38376,R,ugm-3
07-01-2015,01:00,14.35393,R,ugm-3,49.16273,R,ugm-3,71.17178,R,ugm-3
07-01-2015,02:00,2.98604,R,ugm-3,20.17305,R,ugm-3,24.75158,R,ugm-3
07-01-2015,03:00,1.92521,R,ugm-3,16.03775,R,ugm-3,18.98969,R,ugm-3
07-01-2015,04:00,6.91503,R,ugm-3,19.03846,R,ugm-3,29.64136,R,ugm-3
07-01-2015,05:00,3.02533,R,ugm-3,15.32534,R,ugm-3,19.96411,R,ugm-3
07-01-2015,06:00,6.52213,R,ugm-3,18.66696,R,ugm-3,28.66742,R,ugm-3
07-01-2015,07:00,15.51953,R,ugm-3,29.46111,R,ugm-3,53.25739,R,ugm-3
07-01-2015,08:00,27.69942,R,ugm-3,43.40897,R,ugm-3,85.88081,R,ugm-3
07-01-2015,09:00,46.24427,R,ugm-3,65.18804,R,ugm-3,136.09493,R,ugm-3
07-01-2015,10:00,,,,,,,,,
07-01-2015,11:00,,,,,,,,,
07-01-2015,12:00,,,,,,,,,
07-01-2015,13:00,15.51953,R,ugm-3,29.64375,R,ugm-3,53.44003,R,ugm-3
07-01-2015,14:00,18.38770,R,ugm-3,33.82734,R,ugm-3,62.02142,R,ugm-3
07-01-2015,15:00,17.95551,R,ugm-3,34.12522,R,ugm-3,61.65661,R,ugm-3
07-01-2015,16:00,14.49799,R,ugm-3,29.26173,R,ugm-3,51.49167,R,ugm-3
07-01-2015,17:00,14.14438,R,ugm-3,31.14315,R,ugm-3,52.83090,R,ugm-3
07-01-2015,18:00,21.88450,R,ugm-3,45.26505,R,ugm-3,78.82082,R,ugm-3
07-01-2015,19:00,9.58675,R,ugm-3,33.08003,R,ugm-3,47.77951,R,ugm-3
07-01-2015,20:00,7.58296,R,ugm-3,22.39729,R,ugm-3,34.02433,R,ugm-3
07-01-2015,21:00,4.08616,R,ugm-3,13.51564,R,ugm-3,19.78099,R,ugm-3
07-01-2015,22:00,2.90746,R,ugm-3,14.83574,R,ugm-3,19.29378,R,ugm-3
07-01-2015,23:00,3.61468,R,ugm-3,18.62106,R,ugm-3,24.16348,R,ugm-3
07-01-2015,24:00,9.97965,R,ugm-3,37.83355,R,ugm-3,53.13547,R,ugm-3
08-01-2015,01:00,2.98604,R,ugm-3,15.96938,R,ugm-3,20.54790,R,ugm-3
08-01-2015,02:00,2.35740,R,ugm-3,11.49158,R,ugm-3,15.10620,R,ugm-3
08-01-2015,03:00,1.41444,R,ugm-3,11.96269,R,ugm-3,14.13146,R,ugm-3
08-01-2015,04:00,1.37515,R,ugm-3,8.12478,R,ugm-3,10.23331,R,ugm-3
08-01-2015,05:00,1.65018,R,ugm-3,9.04326,R,ugm-3,11.57349,R,ugm-3
08-01-2015,06:00,7.54367,R,ugm-3,20.59523,R,ugm-3,32.16203,R,ugm-3
08-01-2015,07:00,24.59551,R,ugm-3,47.50507,R,ugm-3,85.21765,R,ugm-3
08-01-2015,08:00,49.93753,R,ugm-3,75.34724,R,ugm-3,151.91705,R,ugm-3
08-01-2015,09:00,91.70274,R,ugm-3,94.51623,R,ugm-3,235.12514,R,ugm-3
08-01-2015,10:00,77.28333,R,ugm-3,86.89970,R,ugm-3,205.39915,R,ugm-3
08-01-2015,11:00,44.31906,R,ugm-3,65.93200,R,ugm-3,133.88695,R,ugm-3
08-01-2015,12:00,38.70060,R,ugm-3,57.49118,R,ugm-3,116.83128,R,ugm-3
08-01-2015,13:00,41.37232,R,ugm-3,55.22200,R,ugm-3,118.65867,R,ugm-3
08-01-2015,14:00,37.28616,R,ugm-3,55.09148,R,ugm-3,112.26279,R,ugm-3
08-01-2015,15:00,32.25705,R,ugm-3,50.37668,R,ugm-3,99.83680,R,ugm-3
08-01-2015,16:00,23.22036,R,ugm-3,47.11587,R,ugm-3,82.71993,R,ugm-3
08-01-2015,17:00,34.61445,R,ugm-3,63.81821,R,ugm-3,116.89296,R,ugm-3
08-01-2015,18:00,49.54463,R,ugm-3,74.54925,R,ugm-3,150.51662,R,ugm-3
08-01-2015,19:00,19.48782,R,ugm-3,42.72764,R,ugm-3,72.60854,R,ugm-3
08-01-2015,20:00,12.80852,R,ugm-3,38.22801,R,ugm-3,57.86747,R,ugm-3
08-01-2015,21:00,7.89728,R,ugm-3,26.51012,R,ugm-3,38.61911,R,ugm-3
08-01-2015,22:00,4.51834,R,ugm-3,16.40160,R,ugm-3,23.32963,R,ugm-3
08-01-2015,23:00,1.61089,R,ugm-3,9.16422,R,ugm-3,11.63422,R,ugm-3
08-01-2015,24:00,1.88592,R,ugm-3,12.15394,R,ugm-3,15.04564,R,ugm-3
09-01-2015,01:00,1.15251,R,ugm-3,5.71646,R,ugm-3,7.48361,R,ugm-3
09-01-2015,02:00,0.31432,R,ugm-3,7.40839,R,ugm-3,7.89034,R,ugm-3
09-01-2015,03:00,0.43219,R,ugm-3,4.15730,R,ugm-3,4.81998,R,ugm-3
09-01-2015,04:00,0.39290,R,ugm-3,5.98660,R,ugm-3,6.58904,R,ugm-3
09-01-2015,05:00,0.62864,R,ugm-3,4.46617,R,ugm-3,5.43007,R,ugm-3
09-01-2015,06:00,1.76805,R,ugm-3,8.88069,R,ugm-3,11.59166,R,ugm-3
09-01-2015,07:00,8.36876,R,ugm-3,24.81038,R,ugm-3,37.64230,R,ugm-3
09-01-2015,08:00,21.13799,R,ugm-3,43.05659,R,ugm-3,75.46773,R,ugm-3
09-01-2015,09:00,17.09113,R,ugm-3,34.00951,R,ugm-3,60.21554,R,ugm-3
09-01-2015,10:00,14.81231,R,ugm-3,31.76854,R,ugm-3,54.48043,R,ugm-3
09-01-2015,11:00,22.55243,R,ugm-3,47.96550,R,ugm-3,82.54541,R,ugm-3
09-01-2015,12:00,23.69184,R,ugm-3,42.31311,R,ugm-3,78.64009,R,ugm-3
09-01-2015,13:00,24.90983,R,ugm-3,45.93586,R,ugm-3,84.13040,R,ugm-3
09-01-2015,14:00,21.60947,R,ugm-3,49.83736,R,ugm-3,82.97142,R,ugm-3
09-01-2015,15:00,18.26983,R,ugm-3,40.43886,R,ugm-3,68.45220,R,ugm-3
09-01-2015,16:00,13.86935,R,ugm-3,27.66288,R,ugm-3,48.92892,R,ugm-3
09-01-2015,17:00,24.87054,R,ugm-3,34.03868,R,ugm-3,72.17297,R,ugm-3
09-01-2015,18:00,16.77681,R,ugm-3,40.10465,R,ugm-3,65.82873,R,ugm-3
09-01-2015,19:00,7.85799,R,ugm-3,19.67580,R,ugm-3,31.72455,R,ugm-3
09-01-2015,20:00,4.32190,R,ugm-3,13.99376,R,ugm-3,20.62058,R,ugm-3
09-01-2015,21:00,4.67550,R,ugm-3,16.25816,R,ugm-3,23.42717,R,ugm-3
09-01-2015,22:00,2.39669,R,ugm-3,10.84483,R,ugm-3,14.51970,R,ugm-3
09-01-2015,23:00,1.72876,R,ugm-3,8.88022,R,ugm-3,11.53094,R,ugm-3
09-01-2015,24:00,1.68947,R,ugm-3,11.13697,R,ugm-3,13.72745,R,ugm-3
10-01-2015,01:00,2.67172,R,ugm-3,11.20853,R,ugm-3,15.30510,R,ugm-3
10-01-2015,02:00,1.99069,R,ugm-3,7.69335,R,ugm-3,10.74570,R,ugm-3
10-01-2015,03:00,1.10012,R,ugm-3,7.16662,R,ugm-3,8.85344,R,ugm-3
10-01-2015,04:00,0.55006,R,ugm-3,6.23953,R,ugm-3,7.08294,R,ugm-3
10-01-2015,05:00,0.35361,R,ugm-3,6.54027,R,ugm-3,7.08247,R,ugm-3
10-01-2015,06:00,3.18249,R,ugm-3,11.17808,R,ugm-3,16.05783,R,ugm-3
10-01-2015,07:00,3.41823,R,ugm-3,12.52592,R,ugm-3,17.76713,R,ugm-3
10-01-2015,08:00,7.38651,R,ugm-3,19.08053,R,ugm-3,30.40636,R,ugm-3
10-01-2015,09:00,7.22935,R,ugm-3,19.32103,R,ugm-3,30.40588,R,ugm-3
10-01-2015,10:00,8.56521,R,ugm-3,18.98300,R,ugm-3,32.11613,R,ugm-3
10-01-2015,11:00,9.70462,R,ugm-3,17.72409,R,ugm-3,32.60430,R,ugm-3
10-01-2015,12:00,11.86557,R,ugm-3,20.88211,R,ugm-3,39.07572,R,ugm-3
10-01-2015,13:00,13.28000,R,ugm-3,19.69062,R,ugm-3,40.05301,R,ugm-3
10-01-2015,14:00,13.28000,R,ugm-3,23.59882,R,ugm-3,43.96120,R,ugm-3
10-01-2015,15:00,16.10888,R,ugm-3,27.19814,R,ugm-3,51.89808,R,ugm-3
10-01-2015,16:00,14.26225,R,ugm-3,20.68799,R,ugm-3,42.55647,R,ugm-3
10-01-2015,17:00,14.14438,R,ugm-3,24.59284,R,ugm-3,46.28059,R,ugm-3
10-01-2015,18:00,28.24947,R,ugm-3,41.24832,R,ugm-3,84.56358,R,ugm-3
10-01-2015,19:00,15.71598,R,ugm-3,24.56415,R,ugm-3,48.66165,R,ugm-3
10-01-2015,20:00,10.37255,R,ugm-3,19.38701,R,ugm-3,35.29136,R,ugm-3
10-01-2015,21:00,7.19006,R,ugm-3,13.58066,R,ugm-3,24.60527,R,ugm-3
10-01-2015,22:00,5.18627,R,ugm-3,19.21823,R,ugm-3,27.17041,R,ugm-3
10-01-2015,23:00,3.41823,R,ugm-3,11.18287,R,ugm-3,16.42407,R,ugm-3
10-01-2015,24:00,3.88971,R,ugm-3,11.74227,R,ugm-3,17.70640,R,ugm-3
11-01-2015,01:00,3.09081,R,ugm-3,6.59430,R,ugm-3,11.33348,R,ugm-3
11-01-2015,02:00,2.04308,R,ugm-3,5.02095,R,ugm-3,8.15363,R,ugm-3
11-01-2015,03:00,1.88592,R,ugm-3,5.48601,R,ugm-3,8.37771,R,ugm-3
11-01-2015,04:00,1.68947,R,ugm-3,4.93138,R,ugm-3,7.52186,R,ugm-3
11-01-2015,05:00,1.10012,R,ugm-3,6.01816,R,ugm-3,7.70498,R,ugm-3
11-01-2015,06:00,1.84663,R,ugm-3,11.29475,R,ugm-3,14.12620,R,ugm-3
11-01-2015,07:00,2.82888,R,ugm-3,13.94691,R,ugm-3,18.28446,R,ugm-3
11-01-2015,08:00,3.45752,R,ugm-3,10.84244,R,ugm-3,16.14389,R,ugm-3
11-01-2015,09:00,4.40047,R,ugm-3,12.08748,R,ugm-3,18.83478,R,ugm-3
11-01-2015,10:00,5.93278,R,ugm-3,19.82832,R,ugm-3,28.92513,R,ugm-3
11-01-2015,11:00,7.58296,R,ugm-3,16.01432,R,ugm-3,27.64136,R,ugm-3
11-01-2015,12:00,6.52213,R,ugm-3,15.43866,R,ugm-3,25.43912,R,ugm-3
11-01-2015,13:00,5.77562,R,ugm-3,15.11640,R,ugm-3,23.97223,R,ugm-3
11-01-2015,14:00,5.77562,R,ugm-3,16.76689,R,ugm-3,25.62272,R,ugm-3
11-01-2015,15:00,6.48284,R,ugm-3,16.23282,R,ugm-3,26.17304,R,ugm-3
11-01-2015,16:00,6.20781,R,ugm-3,16.40973,R,ugm-3,25.92824,R,ugm-3
11-01-2015,17:00,10.41184,R,ugm-3,29.53283,R,ugm-3,45.49742,R,ugm-3
11-01-2015,18:00,5.65775,R,ugm-3,17.37554,R,ugm-3,26.05064,R,ugm-3
11-01-2015,19:00,7.15077,R,ugm-3,18.44989,R,ugm-3,29.41425,R,ugm-3
11-01-2015,20:00,6.28639,R,ugm-3,14.14915,R,ugm-3,23.78815,R,ugm-3
11-01-2015,21:00,4.28261,R,ugm-3,14.89742,R,ugm-3,21.46399,R,ugm-3
11-01-2015,22:00,4.40047,R,ugm-3,16.61293,R,ugm-3,23.36023,R,ugm-3
11-01-2015,23:00,2.35740,R,ugm-3,13.08007,R,ugm-3,16.69469,R,ugm-3
11-01-2015,24:00,1.68947,R,ugm-3,9.82356,R,ugm-3,12.41404,R,ugm-3
12-01-2015,01:00,1.51921,R,ugm-3,6.97298,R,ugm-3,9.30240,R,ugm-3
12-01-2015,02:00,0.68103,R,ugm-3,3.93338,R,ugm-3,4.97760,R,ugm-3
12-01-2015,03:00,1.10012,R,ugm-3,5.90198,R,ugm-3,7.58880,R,ugm-3
12-01-2015,04:00,0.66793,R,ugm-3,4.97346,R,ugm-3,5.99760,R,ugm-3
12-01-2015,05:00,0.82509,R,ugm-3,6.26248,R,ugm-3,7.52760,R,ugm-3
12-01-2015,06:00,2.12166,R,ugm-3,10.51684,R,ugm-3,13.77000,R,ugm-3
12-01-2015,07:00,4.83266,R,ugm-3,11.99042,R,ugm-3,19.40040,R,ugm-3
12-01-2015,08:00,6.36497,R,ugm-3,18.27011,R,ugm-3,28.02960,R,ugm-3
12-01-2015,09:00,9.03669,R,ugm-3,23.84314,R,ugm-3,37.69920,R,ugm-3
12-01-2015,10:00,14.10509,R,ugm-3,31.61649,R,ugm-3,53.24400,R,ugm-3
12-01-2015,11:00,14.89089,R,ugm-3,31.20722,R,ugm-3,54.03960,R,ugm-3
12-01-2015,12:00,22.90604,R,ugm-3,45.53949,R,ugm-3,80.66160,R,ugm-3
12-01-2015,13:00,25.57776,R,ugm-3,42.66692,R,ugm-3,81.88560,R,ugm-3
12-01-2015,14:00,21.41302,R,ugm-3,38.03676,R,ugm-3,70.86960,R,ugm-3
12-01-2015,15:00,31.94273,R,ugm-3,47.41183,R,ugm-3,96.39000,R,ugm-3
12-01-2015,16:00,40.46865,R,ugm-3,58.39054,R,ugm-3,120.44160,R,ugm-3
12-01-2015,17:00,53.82723,R,ugm-3,80.07446,R,ugm-3,162.60840,R,ugm-3
12-01-2015,18:00,94.29588,R,ugm-3,120.34980,R,ugm-3,264.93480,R,ugm-3
12-01-2015,19:00,100.42511,R,ugm-3,109.29938,R,ugm-3,263.28240,R,ugm-3
12-01-2015,20:00,22.08095,R,ugm-3,66.75581,R,ugm-3,100.61280,R,ugm-3
12-01-2015,21:00,25.10628,R,ugm-3,68.48184,R,ugm-3,106.97760,R,ugm-3
12-01-2015,22:00,12.25846,R,ugm-3,47.42235,R,ugm-3,66.21840,R,ugm-3
12-01-2015,23:00,7.66154,R,ugm-3,33.11207,R,ugm-3,44.85960,R,ugm-3
12-01-2015,24:00,8.09373,R,ugm-3,42.11899,R,ugm-3,54.52920,R,ugm-3
13-01-2015,01:00,14.93018,R,ugm-3,52.62371,R,ugm-3,75.51634,R,ugm-3
13-01-2015,02:00,1.72876,R,ugm-3,12.87750,R,ugm-3,15.52823,R,ugm-3
13-01-2015,03:00,1.41444,R,ugm-3,11.00978,R,ugm-3,13.17856,R,ugm-3
13-01-2015,04:00,0.70722,R,ugm-3,7.37460,R,ugm-3,8.45899,R,ugm-3
13-01-2015,05:00,1.41444,R,ugm-3,9.10924,R,ugm-3,11.27801,R,ugm-3
13-01-2015,06:00,5.14698,R,ugm-3,24.53355,R,ugm-3,32.42548,R,ugm-3
13-01-2015,07:00,13.67290,R,ugm-3,30.21702,R,ugm-3,51.18185,R,ugm-3
13-01-2015,08:00,26.44214,R,ugm-3,43.00161,R,ugm-3,83.54565,R,ugm-3
13-01-2015,09:00,61.68522,R,ugm-3,82.31687,R,ugm-3,176.89956,R,ugm-3
13-01-2015,10:00,44.90841,R,ugm-3,75.06371,R,ugm-3,143.92232,R,ugm-3
13-01-2015,11:00,33.98581,R,ugm-3,53.68531,R,ugm-3,105.79615,R,ugm-3
13-01-2015,12:00,21.80592,R,ugm-3,45.20672,R,ugm-3,78.64200,R,ugm-3
13-01-2015,13:00,33.23930,R,ugm-3,54.76874,R,ugm-3,105.73495,R,ugm-3
13-01-2015,14:00,27.73871,R,ugm-3,50.08551,R,ugm-3,92.61759,R,ugm-3
13-01-2015,15:00,32.84640,R,ugm-3,53.89999,R,ugm-3,104.26376,R,ugm-3
13-01-2015,16:00,34.45729,R,ugm-3,54.92413,R,ugm-3,107.75790,R,ugm-3
13-01-2015,17:00,49.23031,R,ugm-3,64.32981,R,ugm-3,139.81523,R,ugm-3
13-01-2015,18:00,59.64214,R,ugm-3,78.40007,R,ugm-3,169.85008,R,ugm-3
13-01-2015,19:00,18.50557,R,ugm-3,52.53590,R,ugm-3,80.91070,R,ugm-3
13-01-2015,20:00,15.75527,R,ugm-3,40.14146,R,ugm-3,64.29921,R,ugm-3
13-01-2015,21:00,11.39409,R,ugm-3,40.45320,R,ugm-3,57.92389,R,ugm-3
13-01-2015,22:00,12.49420,R,ugm-3,41.70876,R,ugm-3,60.86627,R,ugm-3
13-01-2015,23:00,7.22935,R,ugm-3,34.57991,R,ugm-3,45.66476,R,ugm-3
13-01-2015,24:00,7.11148,R,ugm-3,37.02935,R,ugm-3,47.93347,R,ugm-3
14-01-2015,01:00,10.32016,R,ugm-3,39.30315,R,ugm-3,55.12718,R,ugm-3
14-01-2015,02:00,3.50990,R,ugm-3,16.70186,R,ugm-3,22.08364,R,ugm-3
14-01-2015,03:00,2.63243,R,ugm-3,16.45276,R,ugm-3,20.48909,R,ugm-3
14-01-2015,04:00,7.74012,R,ugm-3,25.55148,R,ugm-3,37.41950,R,ugm-3
14-01-2015,05:00,2.63243,R,ugm-3,17.86275,R,ugm-3,21.89908,R,ugm-3
14-01-2015,06:00,7.62225,R,ugm-3,25.42525,R,ugm-3,37.11254,R,ugm-3
14-01-2015,07:00,23.61326,R,ugm-3,42.06783,R,ugm-3,78.27432,R,ugm-3
14-01-2015,08:00,29.27101,R,ugm-3,60.01568,R,ugm-3,104.89728,R,ugm-3
14-01-2015,09:00,37.08971,R,ugm-3,72.87151,R,ugm-3,129.74161,R,ugm-3
14-01-2015,10:00,43.10108,R,ugm-3,64.26765,R,ugm-3,130.35504,R,ugm-3
14-01-2015,11:00,35.00735,R,ugm-3,55.82062,R,ugm-3,109.49780,R,ugm-3
14-01-2015,12:00,28.21018,R,ugm-3,45.38602,R,ugm-3,88.64103,R,ugm-3
14-01-2015,13:00,31.35338,R,ugm-3,55.47350,R,ugm-3,103.54801,R,ugm-3
14-01-2015,14:00,22.70959,R,ugm-3,46.88876,R,ugm-3,81.70965,R,ugm-3
14-01-2015,15:00,30.01752,R,ugm-3,48.74963,R,ugm-3,94.77585,R,ugm-3
14-01-2015,16:00,25.02770,R,ugm-3,39.77618,R,ugm-3,78.15144,R,ugm-3
14-01-2015,17:00,35.55741,R,ugm-3,56.75631,R,ugm-3,111.27690,R,ugm-3
14-01-2015,18:00,41.68664,R,ugm-3,61.59015,R,ugm-3,125.50877,R,ugm-3
14-01-2015,19:00,17.40545,R,ugm-3,34.10274,R,ugm-3,60.79073,R,ugm-3
14-01-2015,20:00,13.55503,R,ugm-3,29.45633,R,ugm-3,50.24042,R,ugm-3
14-01-2015,21:00,7.89728,R,ugm-3,19.42144,R,ugm-3,31.53043,R,ugm-3
14-01-2015,22:00,8.13302,R,ugm-3,19.73461,R,ugm-3,32.20507,R,ugm-3
14-01-2015,23:00,3.49681,R,ugm-3,10.09704,R,ugm-3,15.45874,R,ugm-3
14-01-2015,24:00,2.98604,R,ugm-3,9.34639,R,ugm-3,13.92491,R,ugm-3
15-01-2015,01:00,2.67172,R,ugm-3,9.98325,R,ugm-3,14.07983,R,ugm-3
15-01-2015,02:00,2.04308,R,ugm-3,9.31005,R,ugm-3,12.44273,R,ugm-3
15-01-2015,03:00,1.17870,R,ugm-3,6.60338,R,ugm-3,8.41070,R,ugm-3
15-01-2015,04:00,0.74651,R,ugm-3,7.26607,R,ugm-3,8.41070,R,ugm-3
15-01-2015,05:00,2.00379,R,ugm-3,9.32870,R,ugm-3,12.40113,R,ugm-3
15-01-2015,06:00,2.31811,R,ugm-3,9.58306,R,ugm-3,13.13744,R,ugm-3
15-01-2015,07:00,7.22935,R,ugm-3,17.52376,R,ugm-3,28.60861,R,ugm-3
15-01-2015,08:00,14.45870,R,ugm-3,33.45058,R,ugm-3,55.62028,R,ugm-3
15-01-2015,09:00,20.58793,R,ugm-3,36.76112,R,ugm-3,68.32884,R,ugm-3
15-01-2015,10:00,18.15196,R,ugm-3,32.94473,R,ugm-3,60.77734,R,ugm-3
15-01-2015,11:00,16.81610,R,ugm-3,27.01279,R,ugm-3,52.79711,R,ugm-3
15-01-2015,12:00,14.65515,R,ugm-3,27.93111,R,ugm-3,50.40203,R,ugm-3
15-01-2015,13:00,15.16592,R,ugm-3,23.77190,R,ugm-3,47.02598,R,ugm-3
15-01-2015,14:00,11.11906,R,ugm-3,19.04898,R,ugm-3,36.09796,R,ugm-3
15-01-2015,15:00,12.17989,R,ugm-3,21.28947,R,ugm-3,39.96503,R,ugm-3
15-01-2015,16:00,11.00119,R,ugm-3,22.97486,R,ugm-3,39.84311,R,ugm-3
15-01-2015,17:00,19.60569,R,ugm-3,24.26963,R,ugm-3,54.33126,R,ugm-3